www.pogodaiklimat.ru

Погода и климат >> Архив погоды >> Антарктида >> Marble Point


ПОГОДА в Marble Point

  • Прогноз погоды в Marble Point
  • Монитор погоды в Marble Point
  • Климат города

АРХИВ ПОГОДЫ в Marble Point

Время (UTC), дата Ветер
(напр.,м/с)
 
Видим.   Явления Облачность Т
(С)
Тd
(С)
f
(%)
Тe
(С)
Тes
(С)
Комфортность P
(гПа)
Po
(гПа)
Тmin
(С)
Tmax
(С)
R
(мм)
R24
(мм)
S
(см)
19 10.07 0 н/о н/о -31.5 974.2
20 10.07 0 н/о н/о -32.5 974.0
21 10.07 0 н/о н/о -32.3 973.9
22 10.07 0 н/о н/о -32.3 974.0
23 10.07 0 н/о н/о -32.3 973.3
00 11.07 0 н/о н/о -33.3 973.3
01 11.07 0 н/о н/о -33.8 972.8
02 11.07 0 н/о н/о -33.3 972.0
03 11.07 0 н/о н/о -34.5 971.8
04 11.07 0 н/о н/о -34.4 971.6
05 11.07 0 н/о н/о -33.1 971.2
06 11.07 0 н/о н/о -32.1 970.8
07 11.07 0 н/о н/о -32.6 970.5
08 11.07 0 н/о н/о -32.6 970.3
09 11.07 0 н/о н/о -31.9 969.7
10 11.07 0 н/о н/о -31.5 969.1
11 11.07 0 н/о н/о -31.4 968.2
12 11.07 0 н/о н/о -31.0 967.3
13 11.07 0 н/о н/о -30.9 966.8
14 11.07 0 н/о н/о -29.3 964.8
15 11.07 0 н/о н/о -32.5 964.6
16 11.07 0 н/о н/о -31.0 963.8
17 11.07 0 н/о н/о -30.3 963.0
18 11.07 0 н/о н/о -30.4 962.2
19 11.07 0 н/о н/о -29.5 961.0
20 11.07 0 н/о н/о -34.4 960.4
21 11.07 0 н/о н/о -34.0 959.4
22 11.07 0 н/о н/о -33.1 958.9
23 11.07 0 н/о н/о -32.4 957.8
00 12.07 0 н/о н/о -32.8 957.2
01 12.07 0 н/о н/о -32.4 956.3
02 12.07 0 н/о н/о -32.5 955.2
03 12.07 0 н/о н/о -32.0 954.8
04 12.07 0 н/о н/о -33.8 954.5
05 12.07 0 н/о н/о -33.9 954.3
06 12.07 0 н/о н/о -33.5 953.8
07 12.07 0 н/о н/о -33.5 953.5
08 12.07 0 н/о н/о -33.6 953.5
09 12.07 0 н/о н/о -34.0 953.2
10 12.07 0 н/о н/о -32.9 953.5
11 12.07 0 н/о н/о -32.3 953.4
12 12.07 0 н/о н/о -32.3 953.6
13 12.07 0 н/о н/о -33.3 954.0
14 12.07 0 н/о н/о -36.8 954.3
15 12.07 0 н/о н/о -34.1 954.8
16 12.07 0 н/о н/о -35.0 955.6
17 12.07 0 н/о н/о -34.9 955.6
18 12.07 0 н/о 956.2
19 12.07 0 н/о н/о -34.0 957.0
20 12.07 0 н/о н/о -36.6 957.4
21 12.07 0 н/о н/о -35.9 957.7
22 12.07 0 н/о н/о -35.0 958.4
23 12.07 0 н/о н/о -34.5 958.8
00 13.07 0 н/о н/о -34.0 959.0
01 13.07 0 н/о н/о -34.1 959.8
02 13.07 0 н/о н/о -34.4 960.2
03 13.07 0 н/о н/о -33.1 960.5
04 13.07 0 н/о н/о -33.3 961.1
05 13.07 0 н/о н/о -34.4 962.2
06 13.07 0 н/о н/о -34.1 962.8
07 13.07 0 н/о н/о -34.1 963.3
08 13.07 0 н/о н/о -34.4 963.9
09 13.07 0 н/о н/о -34.0 964.4
10 13.07 0 н/о н/о -34.5 964.7
11 13.07 0 н/о н/о -36.3 965.2
12 13.07 0 н/о н/о -34.5 965.8
13 13.07 0 н/о н/о -33.9 966.4
14 13.07 0 н/о н/о -34.6 966.6
15 13.07 0 н/о н/о -34.9 967.1
16 13.07 0 н/о н/о -33.1 967.7
17 13.07 0 н/о н/о -34.0 968.4
18 13.07 0 н/о н/о -34.5 969.0
19 13.07 0 н/о н/о -35.5 969.2
20 13.07 0 н/о н/о -34.4 969.6
21 13.07 0 н/о н/о -33.6 969.6
22 13.07 0 н/о н/о -33.3 969.7
23 13.07 0 н/о н/о -32.6 969.4
00 14.07 0 н/о н/о -32.3 968.9
01 14.07 0 н/о н/о -32.3 968.6
02 14.07 0 н/о н/о -33.1 968.5
03 14.07 0 н/о н/о -34.0 968.2
04 14.07 0 н/о н/о -31.5 967.4
05 14.07 0 н/о н/о -31.3
06 14.07 0 н/о н/о -33.1 966.5
07 14.07 0 н/о н/о -31.6 966.0
08 14.07 0 н/о н/о -31.5 966.1
09 14.07 0 н/о н/о -31.9 966.5
10 14.07 0 н/о н/о -30.9 966.5
11 14.07 0 н/о н/о -31.8 966.6
12 14.07 0 н/о н/о -32.5 967.1
13 14.07 0 н/о н/о -31.4 967.4
14 14.07 0 н/о н/о -32.3 968.0
15 14.07 0 н/о н/о -32.9 968.6
16 14.07 0 н/о н/о -32.8 969.6
17 14.07 0 н/о н/о -31.9 969.9
18 14.07 0 н/о н/о -31.0 970.9
19 14.07 0 н/о н/о -28.8 971.7
20 14.07 0 н/о н/о -28.8 972.4
21 14.07 0 н/о н/о -26.1 973.8
22 14.07 0 н/о н/о -23.8 974.2
23 14.07 0 н/о н/о -23.4 974.6
00 15.07 0 н/о н/о -24.8 974.5
01 15.07 0 н/о н/о -23.3 974.7
02 15.07 0 н/о н/о -23.9 974.6
03 15.07 0 н/о н/о -21.1 974.9
04 15.07 0 н/о н/о -21.3 975.2
05 15.07 0 н/о н/о -20.3 975.7
06 15.07 0 н/о н/о -22.8 975.3
07 15.07 0 н/о н/о -22.8 975.5
08 15.07 0 н/о н/о -19.4 975.0
09 15.07 0 н/о н/о -18.6 974.5
10 15.07 0 н/о н/о -18.0 974.4
11 15.07 0 н/о н/о -18.1 974.4
12 15.07 0 н/о н/о -19.1 974.3
13 15.07 0 н/о н/о -21.5 974.6
14 15.07 0 н/о н/о -19.1 975.0
15 15.07 0 н/о н/о -19.8 975.7
16 15.07 0 н/о н/о -20.0 976.4
17 15.07 0 н/о н/о -20.9 976.4
18 15.07 0 н/о н/о -20.8 976.7
19 15.07 0 н/о н/о -20.9 976.7
20 15.07 0 н/о н/о -20.8 976.8
21 15.07 0 н/о н/о -20.5 976.2
22 15.07 0 н/о н/о -20.3 976.1
23 15.07 0 н/о н/о -20.8 975.9
00 16.07 0 н/о н/о -20.6 975.7
01 16.07 0 н/о н/о -21.3 975.6
02 16.07 0 н/о н/о -20.6 975.1
03 16.07 0 н/о н/о -20.9 974.9
04 16.07 0 н/о н/о -22.8 974.6
05 16.07 0 н/о н/о -23.9 974.1
06 16.07 0 н/о н/о -24.4 974.0
07 16.07 0 н/о н/о -24.4 973.6
08 16.07 0 н/о н/о -23.9 973.2
09 16.07 0 н/о н/о -23.3 973.2
10 16.07 0 н/о н/о -24.3 973.2
11 16.07 0 н/о н/о -26.1 973.5
12 16.07 0 н/о н/о -27.1 973.5
13 16.07 0 н/о н/о -24.5 973.9
14 16.07 0 н/о н/о -26.3 974.0
15 16.07 0 н/о н/о -24.8 974.2
16 16.07 0 н/о н/о -25.4 974.7
17 16.07 0 н/о н/о -26.4 974.1
18 16.07 0 н/о н/о -26.6 974.0
19 16.07 0 н/о н/о -26.3 973.9
20 16.07 0 н/о н/о -26.8 973.6
21 16.07 0 н/о н/о -23.1 973.2
22 16.07 0 н/о н/о -24.4 972.6
23 16.07 0 н/о н/о -21.9 973.0
00 17.07 0 н/о н/о -27.4 973.1
01 17.07 0 н/о н/о -29.5 973.6
02 17.07 0 н/о н/о -27.5 974.3
03 17.07 0 н/о н/о -25.8 974.6
04 17.07 0 н/о н/о -25.8 974.3
05 17.07 0 н/о н/о -23.9 974.3
06 17.07 0 н/о н/о -22.8 973.9
07 17.07 0 н/о н/о -27.5 973.7
08 17.07 0 н/о н/о -20.9 973.3
09 17.07 0 н/о н/о -19.4 972.3
10 17.07 0 н/о н/о -19.1 972.3
11 17.07 0 н/о н/о -23.9 972.6
12 17.07 0 н/о н/о -17.1 971.8
13 17.07 0 н/о н/о -18.4 970.6
14 17.07 0 н/о н/о -12.9 968.3
15 17.07 0 н/о н/о -22.6 969.8
16 17.07 0 н/о н/о -24.6 973.2
17 17.07 0 н/о н/о -26.3 974.1
18 17.07 0 н/о н/о -22.0 972.9

 

Местоположение метеостанции Marble Point (Антарктида): широта -77.43 долгота 163.75 высота над уровнем моря 108 м.

В архиве по умолчанию представлена погода в Marble Point за последнюю неделю. Архивные данные за месяц целиком и за предыдущие месяцы, начиная с января 2011 года, Вы можете получить, выбрав интересующий диапазон дат из раскрывающегося списка и нажав кнопку "Ввод!".


*Определитесь, кто Вы:
робот инопланетянин человек

Внимание! Время в таблицах - всемирное. Для получения местного времени необходимо прибавить поправку, которая в Marble Point равна 0 ч.

Смотрите также архив погоды в соседних городах и на ближайших метеорологических станциях:

Погода в Cape Ross (Антарктида) (82 км)
Погода в McMurdo (Антарктида) (84 км)
Погода в Pegasus North (Антарктида) (87 км)
Погода в Minna Bluff (Антарктида) (142 км)
Погода в Linda (Антарктида) (156 км)
Погода в Ferrell (Антарктида) (175 км)
Погода в Manuela (Антарктида) (277 км)
Погода в Marilyn (Антарктида) (282 км)
Погода в Baia Terra Nova (Антарктида) (304 км)
Погода в Schwerdtfeger (Антарктида) (305 км)

Пояснения к столбцам:

Ветер - указаны скорость ветра в м/с - средняя за 10 мин, порывы в срок и между сроками (в фигурных скобках) и направление, откуда дует ветер: С - северный, СВ - северо-восточный, В - восточный, ЮВ - юго-восточный, Ю - южный, ЮЗ - юго-западный, З - западный, СЗ - северо-западный.
Видимость - горизонтальная дальность видимости в метрах или километрах. При видимости от 1 до 10 км при отсутствии осадков обычно наблюдается дымка, при ухудшении видимости до 1 км и менее - туман. В сухую погоду видимость может ухудшаться дымом, пылью или мглою.
Явления - указаны атмосферные явления, наблюдавшиеся в срок или в последний час перед сроком; фигурными скобками обозначены явления, наблюдавшиеся между сроками (за 1-3 часа до срока); квадратными скобками обозначены град или гололедные отложения с указанием их диаметра в мм.
Облачность - указаны через наклонную черту общая и нижняя облачность в баллах и высота нижней границы облаков в метрах; квадратными скобками обозначены формы облаков: Ci - перистые, Cs - перисто-слоистые, Cc - перисто-кучевые, Ac - высококучевые, As - высокослоистые, Sc - слоисто-кучевые, Ns - слоисто-дождевые, Cu - кучевые, Cb - кучево-дождевые. Подробнее классификацию облаков см. в Атласе облаков (PDF).
T - Температура воздуха - температура, измеренная на высоте 2 м над землей.
Td - Температура точки росы - температура, при понижении до которой содержащийся в воздухе водяной пар достигнет насыщения.
f - Относительная влажность воздуха - влажноcть воздуха, измеренная на высоте 2 м над землей.
Te - Эффективная температура - температура, которую ощущает одетый по сезону человек в тени. Характеристика душности погоды. При расчете учитывается влияние влажности воздуха и скорости ветра на теплоощущения человека.
Tes - Эффективная температура на солнце - температура, которую ощущает человек, с поправкой на солнечный нагрев. Характеристика знойности погоды. Зависит от высоты солнца над горизонтом, облачности и скорости ветра. Ночью, в пасмурную погоду, а также при ветре 12 м/с и более поправка равна нулю.
P - Атмосферное давление - приведенное к уровню моря атмосферное давление.
Po - Атмосферное давление - измеренное на уровне метеостанции атмосферное давление.
Tmin - Минимальная температура - минимум температуры воздуха на высоте 2 м над землей.
Tmax - Максимальная температура - максимум температуры воздуха на высоте 2 м над землей.
R - Количество осадков - Количество выпавших осадков за период времени, мм. При наведении курсора мыши на число - период времени, за который выпало указанное количество осадков.
R24 - Количество осадков - Количество выпавших осадков за 24 часа, мм.
S - Снежный покров - Высота снежного покрова, см. При наведении курсора мыши на число - состояние снежного покрова и степень покрытия местности в баллах.